Hastings, NE

8:15 AM CDT on August 23, 2017 (GMT -0500)
Hastings Municipal

Weather History for KHSI - October, 2013

Change the Weather History Date:

Saturday, October 5, 2013

  Actual Average Record
Temperature  
Mean Temperature 44 °F 58 °F  
Max Temperature 49 °F 69 °F 97 °F (1947)
Min Temperature 38 °F 46 °F 28 °F (2000)
Degree Days  
Heating Degree Days 21 9  
Month to date heating degree days 25 39  
Since 1 July heating degree days 60 135  
Cooling Degree Days 0 1  
Month to date cooling degree days 11 5  
Year to date cooling degree days 1154 1068  
Moisture  
Dew Point 30 °F    
Average Humidity 63    
Maximum Humidity 76    
Minimum Humidity 49    
Precipitation  
Precipitation T in 0.07 in 1.25 in (1946)
Month to date precipitation 4.13 0.35  
Year to date precipitation 23.45 23.57  
Snow  
Snow 0.00 in 0.10 in - ()
Month to date snowfall 0.0 0.1  
Since 1 July snowfall 0.0 0.3  
Since 1 September snowfall 0.0 0.3  
Snow Depth 0.00 in    
Sea Level Pressure  
Sea Level Pressure 29.96 in    
Wind  
Wind Speed 21 mph (West)    
Max Wind Speed 33 mph    
Max Gust Speed 43 mph    
Visibility 10 miles    
Events      
T = Trace of Precipitation, MM = Missing Value Source: NWS Daily Summary

Daily Weather History Graph

Daily Weather History Graph

Search for Another Location

Airport or City:

Trip Planner

Search our weather history database for the weather conditions in past years. The results will help you decide how hot, cold, wet, or windy it might be!

Date:

Astronomy

Oct. 05, 2013 Rise Set
Actual Time 7:34 AM CDT 7:08 PM CDT
Civil Twilight 7:07 AM CDT 7:36 PM CDT
Nautical Twilight 6:35 AM CDT 8:07 PM CDT
Astronomical Twilight 6:03 AM CDT 8:39 PM CDT
Moon 8:15 AM CDT (10/5) 7:28 PM CDT (10/5)
Length of Visible Light 12h 28m
Length of Day
11h 34m
New Moon, 1% of the Moon is Illuminated
Oct 5
New Moon
Oct 11
First Quarter
Oct 18
Full
Oct 26
Last Quarter
Nov 3
New

Hourly Weather History & Observations

Time (CDT) Temp. Windchill Dew Point Humidity Pressure Visibility Wind Dir Wind Speed Gust Speed Precip Events Conditions
12:53 AM 42.1 °F 33.3 °F 28.9 °F 60% 29.96 in 10.0 mi WNW 19.6 mph 26.5 mph N/A   Scattered Clouds
1:53 AM 43.0 °F 34.5 °F 30.0 °F 60% 29.96 in 10.0 mi West 19.6 mph 28.8 mph N/A   Overcast
2:53 AM 42.1 °F 34.5 °F 30.0 °F 62% 29.96 in 10.0 mi West 15.0 mph 24.2 mph N/A   Partly Cloudy
3:53 AM 41.0 °F 33.1 °F 30.0 °F 65% 29.96 in 10.0 mi West 15.0 mph 23.0 mph N/A   Clear
4:53 AM 39.9 °F 31.1 °F 30.0 °F 68% 29.95 in 10.0 mi West 17.3 mph 27.6 mph N/A   Clear
5:53 AM 39.0 °F 29.9 °F 28.9 °F 67% 29.95 in 10.0 mi West 17.3 mph 24.2 mph N/A   Clear
6:53 AM 39.0 °F 30.3 °F 30.0 °F 70% 29.98 in 10.0 mi WSW 16.1 mph 23.0 mph N/A   Clear
7:53 AM 37.9 °F 28.9 °F 30.0 °F 73% 29.98 in 10.0 mi WSW 16.1 mph 23.0 mph N/A   Clear
8:53 AM 41.0 °F 32.5 °F 30.0 °F 65% 29.97 in 10.0 mi West 17.3 mph 25.3 mph N/A   Clear
9:53 AM 44.1 °F 35.2 °F 28.9 °F 55% 29.98 in 10.0 mi West 23.0 mph 32.2 mph N/A   Clear
10:53 AM 45.0 °F 35.8 °F 28.0 °F 52% 29.99 in 10.0 mi West 26.5 mph 36.8 mph N/A   Overcast
11:53 AM 46.9 °F - 28.9 °F 50% 29.98 in 10.0 mi West 26.5 mph 35.7 mph N/A   Overcast
12:53 PM 46.9 °F - 28.9 °F 50% 29.98 in 10.0 mi West 28.8 mph 36.8 mph N/A   Overcast
1:53 PM 46.0 °F 38.0 °F 32.0 °F 58% 29.98 in 10.0 mi West 21.9 mph 36.8 mph N/A   Overcast
2:53 PM 46.0 °F 38.8 °F 30.0 °F 54% 29.94 in 10.0 mi West 18.4 mph 38.0 mph N/A   Mostly Cloudy
3:53 PM 45.0 °F 35.8 °F 28.9 °F 53% 29.95 in 10.0 mi West 26.5 mph 40.3 mph N/A   Overcast
4:53 PM 45.0 °F 37.1 °F 30.9 °F 58% 29.94 in 10.0 mi WNW 19.6 mph 31.1 mph N/A   Overcast
5:53 PM 44.1 °F 35.2 °F 28.9 °F 55% 29.95 in 10.0 mi WNW 23.0 mph 36.8 mph N/A   Overcast
6:53 PM 43.0 °F 34.0 °F 30.9 °F 62% 29.94 in 10.0 mi WNW 21.9 mph 31.1 mph N/A   Mostly Cloudy
7:53 PM 43.0 °F 34.5 °F 30.0 °F 60% 29.95 in 10.0 mi WNW 19.6 mph 28.8 mph N/A   Overcast
8:53 PM 43.0 °F 34.2 °F 30.9 °F 62% 29.96 in 10.0 mi WNW 20.7 mph 27.6 mph N/A   Overcast
9:53 PM 43.0 °F 34.5 °F 30.9 °F 62% 29.95 in 10.0 mi WNW 19.6 mph 26.5 mph N/A   Overcast
10:11 PM 42.8 °F 33.8 °F 30.2 °F 61% 29.93 in 10.0 mi WNW 21.9 mph 29.9 mph N/A   Overcast
10:53 PM 43.0 °F 32.9 °F 30.9 °F 62% 29.94 in 10.0 mi WNW 27.6 mph 38.0 mph N/A   Overcast
11:53 PM 42.1 °F 31.9 °F 32.0 °F 67% 29.93 in 10.0 mi WNW 26.5 mph 34.5 mph N/A   Overcast